Location: Dalton
(34.7700°N, 84.9700°W)
Time: 14:57:24
(UTC-05:00)

Envisat - Pass Details

Date: 07 October 2017
Orbit: 764 x 766 km, 98.2° (Epoch: 15 December)

Event Time Altitude Azimuth Distance (km) Brightness Sun altitude
Exits shadow 21:18:30 41° 19° (NNE) 1,109 3.7 -26.0°
Drops below altitude 10° 21:21:56 10° 356° (N) 2,309 5.6 -26.7°
Sets 21:24:17 0° 353° (N) 3,239 6.5 -27.2°
